Location: Poughquag
(41.6090°N, 73.6820°W)
Time: 14:49:37
(UTC-04:00)

Transit 2A - Pass Details

Date: 02 June 2020
Orbit: 592 x 967 km, 66.7° (Epoch: 05 July)

Event Time Altitude Azimuth Distance (km) Brightness Sun altitude
Rises 22:16:48 0° 330° (NNW) 3,560 11.2 -16.5°
Reaches altitude 10° 22:19:17 10° 331° (NNW) 2,649 10.1 -16.8°
Maximum altitude 22:25:35 82° 59° (ENE) 975 6.4 -17.5°
Enters shadow 22:29:06 29° 145° (SE) 1,696 7.2 -17.9°
